#timestamp,LO_Frequency,Hit,StdDev 
1606942815.8,286046999.9,N
1606942835.7,286047000.5,N
1606942855.5,286046999.3,N
1606942875.3,286046995.0,N
1606942895.2,286046993.9,N
1606942915.0,286046993.4,N
1606942915.9,286046993.4,N
1606942935.8,286046991.9,N
1606942955.6,286046996.0,N
1606942975.4,286046995.1,N
1606942995.3,286046997.4,N
1606943015.1,286046997.0,N
1606943035.8,286046997.9,N
1606943055.7,286046993.7,N
1606943075.5,286046991.7,N
1606943095.4,286046993.0,N
1606943115.2,286046991.0,N
1606943135.0,286046991.3,N
1606943135.9,286046991.3,N
1606943155.8,286046991.5,N
1606943175.6,286046988.7,N
1606943195.4,286046988.1,N
1606943215.3,286046988.9,N
1606943235.1,286046989.3,N
1606943255.9,286046990.3,N
1606943275.7,286046990.7,N
1606943295.5,286046992.7,N
1606943315.4,286046994.3,N
1606943335.2,286046993.4,N
1606943355.0,286046993.7,N
1606943356.0,286046993.7,N
1606943375.8,286046994.8,N
1606943395.6,286046991.9,N
1606943415.5,286046992.8,N
1606943435.3,286046994.5,N
1606943455.1,286046995.1,N
1606943475.9,286047000.7,N
1606943495.7,286047000.4,N
1606943515.6,286046998.8,N
1606943535.4,286047000.8,N
1606943555.2,286047001.2,N
1606943575.1,286046998.2,N
1606943576.0,286046998.2,N
1606943595.8,286046997.3,N
1606943615.7,286046995.4,N
1606943635.5,286046997.2,N
1606943655.3,286046999.1,N
1606943675.2,286046995.3,N
1606943695.9,286046995.6,N
1606943715.7,286046995.9,N
1606943735.6,286046993.9,N
1606943755.4,286046994.1,N
1606943775.3,286046993.3,N
1606943795.1,286046996.6,N
1606943796.0,286046996.6,N
1606943815.8,286047000.2,N
1606943835.7,286047002.6,N
1606943855.5,286047001.1,N
1606943875.3,286047002.8,N
1606943895.2,286047001.3,N
1606943915.0,286047002.0,N
1606943915.9,286047002.0,N
1606943935.8,286047002.3,N
1606943955.6,286046999.0,N
1606943975.4,286046997.1,N
1606943995.3,286047000.9,N
1606944015.1,286047003.4,N
1606944035.8,286047005.8,N
1606944055.7,286047005.3,N
1606944075.5,286047006.2,N
1606944095.4,286047007.5,N
1606944115.2,286047003.1,N
1606944135.0,286047001.7,N
1606944135.9,286047001.7,N
1606944155.8,286047001.7,N
1606944175.6,286047000.2,N
1606944195.4,286046999.0,N
1606944215.3,286046998.8,N
1606944235.1,286047000.1,N
1606944255.8,286046998.7,N
1606944275.7,286046999.5,N
1606944295.5,286047000.6,N
1606944315.4,286047000.0,N
1606944335.2,286047005.8,N
1606944355.0,286047006.0,N
1606944355.9,286047006.0,N
1606944375.8,286047002.9,N
1606944395.6,286047005.1,N
1606944415.5,286047001.6,N
1606944435.3,286047002.4,N
1606944455.1,286046998.5,N
1606944475.9,286046999.5,N
1606944495.7,286046997.3,N
1606944515.5,286046998.5,N
1606944535.4,286047002.7,N
1606944555.2,286047000.7,N
1606944575.0,286046998.6,N
1606944576.0,286046998.6,N
1606944595.8,286046999.5,N
1606944615.6,286046998.1,N
1606944635.5,286046999.6,N
1606944655.3,286046999.6,N
1606944675.1,286046997.4,N
1606944695.9,286046996.5,N
1606944715.7,286046998.6,N
1606944735.6,286046997.7,N
1606944755.4,286046997.1,N
1606944775.2,286046997.2,N
1606944795.1,286046997.4,N
1606944796.0,286046997.4,N
1606944815.8,286046997.8,N
1606944835.6,286046997.7,N
1606944855.5,286046998.3,N
1606944875.3,286047004.0,N
1606944895.2,286047004.2,N
1606944915.9,286047002.1,N
1606944935.7,286047003.5,N
1606944955.6,286047005.5,N
1606944975.4,286047003.4,N
1606944995.3,286047003.1,N
1606945015.1,286047004.7,N
1606945016.0,286047004.7,N
1606945035.8,286047009.1,Y
1606945055.7,286047010.4,P
1606945075.5,286047004.5,N
1606945095.4,286047007.0,N
1606945115.2,286047006.4,N
1606945135.0,286047007.6,N
1606945135.9,286047007.6,N
1606945155.8,286047010.0,Y
1606945175.6,286047007.6,P
1606945195.5,286047007.2,P
1606945215.3,286047005.3,P
1606945235.1,286047004.7,Y
1606945255.9,286046996.7,P
1606945275.7,286046999.9,N
1606945295.5,286047001.0,N
1606945315.4,286047002.6,N
1606945335.2,286047003.6,N
1606945355.1,286047003.1,N
1606945356.0,286047003.1,N
1606945375.8,286047004.7,N
1606945395.6,286047007.0,N
1606945415.5,286047003.1,N
1606945435.3,286047002.6,N
1606945455.1,286047001.6,N
1606945475.9,286047003.0,N
1606945495.7,286047005.7,N
1606945515.6,286047001.9,N
1606945535.4,286047002.1,N
1606945555.2,286047001.9,N
1606945575.1,286047003.6,N
1606945576.0,286047003.6,N
1606945595.8,286047005.3,N
1606945615.7,286047006.8,Y
1606945635.5,286047007.6,P
1606945655.3,286047008.0,P
1606945675.2,286047006.2,N
1606945695.0,286047005.0,N
1606945695.9,286047005.0,N
1606945715.8,286047005.2,Y
1606945735.6,286046998.6,P
1606945755.4,286046999.4,N
1606945775.3,286046998.6,N
1606945795.1,286046998.4,N
1606945815.8,286047011.9,Y
1606945835.7,286046997.3,P
1606945855.5,286046997.2,N
1606945875.4,286046998.0,N
1606945895.2,286046995.9,Y
1606945915.0,286046998.5,P
1606945915.9,286046998.5,P
1606945935.8,286046997.2,P
1606945955.6,286046995.6,Y
1606945975.5,286046996.6,P
1606945995.3,286046996.6,P
1606946015.1,286046996.7,P
1606946035.9,286046998.1,Y
1606946055.7,286047002.1,P
1606946075.5,286047003.1,N
1606946095.4,286047005.3,N
1606946115.2,286047003.2,N
1606946135.1,286047003.9,N
1606946136.0,286047003.9,N
1606946155.8,286047004.8,N
1606946175.6,286047001.6,N
1606946195.5,286047002.1,N
1606946215.3,286047000.7,N
1606946235.1,286047001.0,N
1606946255.9,286047002.1,N
1606946275.7,286047001.5,N
1606946295.6,286047001.8,N
1606946315.4,286047004.2,N
1606946335.2,286047001.7,N
1606946355.1,286047002.4,N
1606946356.0,286047002.4,N
1606946375.8,286047001.7,N
1606946395.6,286047002.4,N
